Погода в Ново-Талицах

Россия / Ивановская область     57°00′25″N   40°51′17″E
темп.,
°C
ветер,
м/с
пор.,
м/с
влажн.,
%
обл.,
%
осадки,
мм/ч
давл.,
гПа
погр.,
м
26 июля, пн
пн2600:00+16юз1151100 0.0 102110
03:00+15юз225397 0.0 102236
06:00+15зюз246186 0.0 1022134
09:00+21з34435 0.0 1022863
12:00+25зсз353273 0.0 10212535
15:00+22з454263 0.0 10211091
18:00+21з2450100 0.0 1020108
21:00+18з24665 0.0 102073
27 июля, вт
вт2700:00+15з347236 0.0 102067
03:00+15зсз25756 0.0 102173
06:00+16сз24695 0.0 1021129
09:00+23сз23455 0.0 1020672
12:00+27зсз243374 0.0 10192772
15:00+27зсз353397 0.0 10182426
18:00+23ссз254592 0.1 1016135
21:00+16всв378932 0.6 1018133
28 июля, ср
ср2800:00+14ю119445 0.4 101811
03:00+14всв119319 0.4 101810
06:00+16всв128965 0.0 101768
09:00+21юв22595 0.0 1016458
12:00+26ю224097 0.0 10141444
15:00+28юз243281 0.0 10122568
18:00+28юз243738 0.0 1010499
21:00+18юз227319 0.0 101024
29 июля, чт
чт2900:00+18ююз3118396 0.0 1009331
03:00+17ююз2789100 0.0 1007244
06:00+16ю2596100 1.6 1006187
09:00+17юз249197 1.9 1004415
12:00+23з2560100 0.1 10041332
15:00+25з5759100 0.3 10031536
18:00+26з4945100 0.3 10021940
21:00+20з3758100 0.3 1003154
30 июля, пт
пт3000:00+20з396695 0.0 1003282
03:00+17з277853 0.0 1004144
06:00+18з38765 0.0 1005234
09:00+24з46515 0.0 1005969
12:00+28з463886 0.0 10052401
15:00+25зюз464999 0.0 1005988
18:00+23зюз385628 0.0 1004452
21:00+19з1173100 0.0 100511